sat.trackr.live / text

‹ back to catalog

STARLINK-36497

NORAD 67323 · 2026-002U

PAYLOAD ACTIVE UNKNOWN

§ Identity

Operator
Country
US
Launch date
2026-01-04
Launch site
AFETR
Launch vehicle
Mass (kg)
RCS (m²)

Purposes: comms

External: N2YO · Heavens-Above · Gunter

§ Orbital elements

Epoch: 2026-05-25T00:39:44.251200Z

Period
94.27 min
Inclination
43.0014°
Eccentricity
0.0000571
Mean motion
15.27579884 rev/d
Perigee alt
482.7 km
Apogee alt
483.4 km
Semi-major
6,861.2 km
B*
3.7297e-4
RAAN
254.1595°
Arg perigee
267.9712°
Mean anomaly
92.1074°
Rev number
2,281

§ Raw data

STARLINK-364971 67323U 26002U   26145.02759550  .00010015  00000+0  37297-3 0  99992 67323  43.0014 254.1595 0000571 267.9712  92.1074 15.27579884 22815

JSON: /api/v1/satellites/67323 · /tle

For live sub-satellite position, see the globe view (requires WebGL).

§ Visibility from observer

Set your observer location to see the next 7 days of passes ≥ 10°. The values pass through the URL so the page stays shareable.

No JS? Fill the form by hand. The geolocation button needs JavaScript.